{"data":{"norad_id":64385,"epoch":"2026-05-25T04:34:32.505600Z","epoch_age_seconds":68735,"freshness":"FRESH","line1":"1 64385U 25127R   26145.19065400  .00013270  00000+0  49075-3 0  9996","line2":"2 64385  42.9992 108.0267 0000822 254.6600 105.4161 15.27588428 54111","mean_motion":15.27588428,"eccentricity":8.22e-5,"inclination_deg":42.9992,"raan_deg":108.0267,"arg_perigee_deg":254.66,"mean_anomaly_deg":105.4161,"bstar":0.00049075,"rev_number":5411,"period_min":94.266228625817,"perigee_km":482.45987226906,"apogee_km":483.58784711439,"semimajor_km":6861.1608596917,"source":"CELESTRAK","updated_at":"2026-05-25T13:38:20.413776Z"}}